STARLINK-33976, 63858

Orbit data source: Space-Track

STARLINK-33976, 63858 is a payload satellite owned by SpaceX/Seattle (US) in LEO that was launched on Wed, 07 May 2025 UTC via an FALCON 9 launch vehicle from the Air Force Eastern Test Range (AFETR). Payload-class satellites include a variety of spacecraft equipped with specific instruments for various scientific and technological missions. These include communications satellites like Starlink; space stations such as the ISS; scientific satellites like the Hubble; Earth observation satellites from companies like Planet Labs, Umbra, and HawkEye 360; GPS; miniature CubeSats for education and research; and military/defense satellites.

Loading next visibility...
Identifier
63858, 2025-093Y
Orbit
LEO
Country
Flag of USUS
Related business
Manufacturer
SpaceX/Seattle
Mission
Operational Commercial Communications
Bus & Motor
STARLINK V2MO, Unknown motor
Mass
575 kg wet, ~530 kg dry
Launch date (UTC)
2025-05-07 (7 months ago)
Launch vehicle
FALCON 9
Launch site
Air Force Eastern Test Range (AFETR)
Object type
Payload
Rocket body
Debris
Shape & HBR
Box + 2 Pan, 17.7 m
Radar Cross Section
36.964 m², Large (>1 m²)

Expand to show TLE details & history
Last TLE update: 15 hours ago

TLE from 15 hours ago
0 STARLINK-33976
1 63858U 25093Y   25346.66921668  .00042889  00000-0  15588-2 0  9993
2 63858  43.0008 209.3025 0001463 256.3274 103.7415 15.27584216 34505
Epoch: 2025-12-12T16:03Z
TLE epoch observation values (Epoch: 2025-12-12T16:03:40.321Z)
Latitude
0.00001°
Longitude
-113.22302°
Altitude
483.051 km
Speed
7.626 km/s
True Right ascension
13h 57m 12s
True Declination
0° 00' 00"
Sunlit
Object was in daylight at epoch
Visualization orbit readout
Latitude
Unknown
Longitude
Unknown
Altitude
Unknown
Speed
Unknown
Apparent Right ascension
Unknown
Apparent Declination
Unknown
Sunlit
N/A
Visualization observer readout
Local Sidereal Time
05:23:34
Azimuth
Unknown
Elevation
Unknown
Doppler factor
Unknown
Orbital elements
Apogee altitude
485.986 km
Perigee altitude
483.977 km
Semi-major axis
6,863.119 km
Eccentricity
0.00015
Inclination
43.0008°
RAAN
209.3025°
Arg. of periapsis
256.3274°
True anomaly
103.75778°
Mean anomaly
103.7415°
Eccentric anomaly
103.74964°
Mean motion
3.81734 °/min
Orbital period
94.31 mins
BSTAR
0.0015588
Loading maneuver chart data...
Computing Atmospheric mass density...
Loading historical data...
Loading historical data...
Loading historical data...
Loading historical data...
Loading historical data...
Loading historical data...
Loading historical data...

Documentation

Showing up to 5 results
|